Lemoore (Abandoned) Willett A, CO

10:40 PM MST on December 14, 2017 (GMT -0700)
Lemoore (Abandoned) Willett A

Weather History for KLMO - April, 2014

Change the Weather History Date:

Wednesday, April 9, 2014

  Actual Average (KBJC) Record (KBJC)
Temperature  
Mean Temperature 68 °F -  
Max Temperature 78 °F 55 °F 77 °F (2006)
Min Temperature 58 °F 33 °F 12 °F (2013)
Cooling Degree Days 3    
Growing Degree Days 18 (Base 50)    
Moisture  
Dew Point 21 °F    
Average Humidity 18    
Maximum Humidity 24    
Minimum Humidity 12    
Precipitation  
Precipitation 0.00 in - - ()
Sea Level Pressure  
Sea Level Pressure 29.98 in    
Wind  
Wind Speed 10 mph (WSW)    
Max Wind Speed 24 mph    
Max Gust Speed 33 mph    
Visibility 10 miles    
Events      
Averages and records for this station are not official NWS values.
T = Trace of Precipitation, MM = Missing Value Source: NWS Daily Summary

Daily Weather History Graph

Daily Weather History Graph

Search for Another Location

Airport or City:

Trip Planner

Search our weather history database for the weather conditions in past years. The results will help you decide how hot, cold, wet, or windy it might be!

Date:

Astronomy

Apr. 09, 2014 Rise Set
Actual Time 6:31 AM MDT 7:33 PM MDT
Civil Twilight 6:03 AM MDT 8:01 PM MDT
Nautical Twilight 5:30 AM MDT 8:34 PM MDT
Astronomical Twilight 4:56 AM MDT 9:08 PM MDT
Moon 2:23 PM MDT (4/9) 3:22 AM MDT (4/9)
Length of Visible Light 13h 57m
Length of Day
13h 01m
Waxing Gibbous, 72% of the Moon is Illuminated
Apr 9
Waxing Gibbous
Apr 15
Full
Apr 22
Last Quarter
Apr 29
New
May 6
First Quarter

Hourly Weather History & Observations

Time (MDT) Temp. Dew Point Humidity Pressure Visibility Wind Dir Wind Speed Gust Speed Precip Events Conditions
12:15 AM 62.6 °F 23.7 °F 23% 30.10 in 10.0 mi ESE 4.6 mph - N/A   Clear
12:35 AM 61.7 °F 23.7 °F 23% 30.09 in 10.0 mi SW 4.6 mph - N/A   Clear
12:55 AM 63.5 °F 23.7 °F 22% 30.08 in 10.0 mi West 18.4 mph 27.6 mph N/A   Clear
1:15 AM 63.0 °F 24.4 °F 23% 30.08 in 10.0 mi West 13.8 mph 23.0 mph N/A   Clear
1:35 AM 62.4 °F 24.1 °F 23% 30.07 in 10.0 mi West 10.4 mph - N/A   Clear
1:55 AM 61.9 °F 23.7 °F 23% 30.06 in 10.0 mi West 12.7 mph 19.6 mph N/A   Clear
2:15 AM 62.6 °F 23.2 °F 22% 30.05 in 10.0 mi WNW 12.7 mph 23.0 mph N/A   Clear
2:35 AM 63.3 °F 22.1 °F 21% 30.04 in 10.0 mi WNW 15.0 mph 24.2 mph N/A   Clear
2:55 AM 64.4 °F 21.6 °F 19% 30.04 in 10.0 mi West 15.0 mph 28.8 mph N/A   Clear
3:15 AM 63.7 °F 21.9 °F 20% 30.03 in 10.0 mi West 17.3 mph 25.3 mph N/A   Clear
3:35 AM 63.1 °F 22.1 °F 21% 30.04 in 10.0 mi SW 8.1 mph - N/A   Clear
3:55 AM 61.3 °F 21.9 °F 22% 30.03 in 10.0 mi South 5.8 mph - N/A   Clear
4:15 AM 62.6 °F 20.8 °F 20% 30.03 in 10.0 mi South 3.5 mph 20.7 mph N/A   Clear
4:35 AM 59.9 °F 21.6 °F 23% 30.03 in 10.0 mi WSW 6.9 mph - N/A   Clear
4:55 AM 62.8 °F 20.3 °F 20% 30.02 in 10.0 mi South 16.1 mph - N/A   Clear
5:15 AM 63.3 °F 20.3 °F 19% 30.03 in 10.0 mi SSW 9.2 mph 19.6 mph N/A   Clear
5:35 AM 63.0 °F 20.8 °F 20% 30.03 in 10.0 mi West 10.4 mph 16.1 mph N/A   Clear
5:55 AM 61.2 °F 21.2 °F 22% 30.02 in 10.0 mi SSW 11.5 mph 21.9 mph N/A   Clear
6:15 AM 63.0 °F 22.3 °F 21% 30.03 in 10.0 mi West 5.8 mph - N/A   Clear
6:35 AM 60.1 °F 22.6 °F 24% 30.04 in 10.0 mi West 13.8 mph 19.6 mph N/A   Clear
6:55 AM 63.3 °F 21.7 °F 20% 30.04 in 10.0 mi WNW 5.8 mph - N/A   Clear
7:15 AM 63.9 °F 22.8 °F 21% 30.04 in 10.0 mi WNW 9.2 mph 16.1 mph N/A   Clear
7:35 AM 65.5 °F 19.9 °F 18% 30.04 in 10.0 mi WSW 8.1 mph 24.2 mph N/A   Clear
7:55 AM 63.1 °F 20.8 °F 20% 30.05 in 10.0 mi WNW 15.0 mph 23.0 mph N/A   Clear
8:15 AM 63.0 °F 19.6 °F 19% 30.06 in 10.0 mi NW 9.2 mph 19.6 mph N/A   Clear
8:35 AM 63.5 °F 20.8 °F 20% 30.05 in 10.0 mi NW 17.3 mph 23.0 mph N/A   Clear
8:55 AM 62.8 °F 23.4 °F 22% 30.06 in 10.0 mi NW 6.9 mph - N/A   Clear
9:15 AM 62.8 °F 22.1 °F 21% 30.06 in 10.0 mi Calm Calm - N/A   Clear
9:35 AM 64.9 °F 21.0 °F 19% 30.06 in 10.0 mi Calm Calm - N/A   Clear
9:55 AM 66.9 °F 21.9 °F 18% 30.05 in 10.0 mi Calm Calm - N/A   Clear
10:15 AM 66.2 °F 23.7 °F 20% 30.06 in 10.0 mi SSW 3.5 mph - N/A   Clear
10:35 AM 65.1 °F 25.2 °F 22% 30.05 in 10.0 mi West 8.1 mph 17.3 mph N/A   Clear
10:55 AM 65.8 °F 20.1 °F 17% 30.04 in 10.0 mi WSW 12.7 mph 25.3 mph N/A   Clear
11:15 AM 66.6 °F 23.4 °F 19% 30.04 in 10.0 mi SW 6.9 mph - N/A   Clear
11:35 AM 67.3 °F 26.4 °F 22% 30.03 in 10.0 mi Calm Calm - N/A   Clear
11:55 AM 68.5 °F 23.9 °F 19% 30.01 in 10.0 mi South 5.8 mph - N/A   Clear
12:15 PM 71.2 °F 24.4 °F 17% 30.00 in 10.0 mi South 10.4 mph 16.1 mph N/A   Clear
12:35 PM 75.0 °F 22.8 °F 14% 29.98 in 10.0 mi SW 20.7 mph 25.3 mph N/A   Clear
12:55 PM 74.5 °F 22.8 °F 15% 29.97 in 10.0 mi SSW 16.1 mph - N/A   Clear
1:15 PM 73.6 °F 22.6 °F 15% 29.96 in 10.0 mi SW 19.6 mph 27.6 mph N/A   Clear
1:35 PM 74.8 °F 21.6 °F 14% 29.96 in 10.0 mi WSW 20.7 mph 29.9 mph N/A   Clear
1:55 PM 76.1 °F 22.3 °F 13% 29.96 in 10.0 mi WSW 19.6 mph 27.6 mph N/A   Clear
2:15 PM 74.7 °F 22.5 °F 14% 29.95 in 10.0 mi SW 17.3 mph 28.8 mph N/A   Clear
2:35 PM 74.8 °F 21.9 °F 14% 29.94 in 10.0 mi SW 16.1 mph 25.3 mph N/A   Clear
2:55 PM 75.7 °F 22.8 °F 14% 29.92 in 10.0 mi SW 23.0 mph 32.2 mph N/A   Clear
3:15 PM 74.5 °F 22.8 °F 15% 29.91 in 10.0 mi WSW 24.2 mph 29.9 mph N/A   Clear
3:35 PM 76.1 °F 23.4 °F 14% 29.90 in 10.0 mi SW 23.0 mph 28.8 mph N/A   Clear
3:55 PM 75.9 °F 24.8 °F 15% 29.89 in 10.0 mi SSW 15.0 mph - N/A   Clear
4:15 PM 76.6 °F 23.5 °F 14% 29.89 in 10.0 mi SW 13.8 mph - N/A   Clear
4:35 PM 76.6 °F 21.2 °F 13% 29.88 in 10.0 mi WSW 20.7 mph 29.9 mph N/A   Clear
4:55 PM 77.5 °F 20.8 °F 12% 29.88 in 10.0 mi WSW 19.6 mph 29.9 mph N/A   Clear
5:15 PM 78.8 °F 22.1 °F 12% 29.88 in 10.0 mi WSW 13.8 mph 20.7 mph N/A   Clear
5:35 PM 77.9 °F 21.2 °F 12% 29.88 in 10.0 mi WSW 17.3 mph 25.3 mph N/A   Clear
5:55 PM 77.2 °F 21.9 °F 13% 29.87 in 10.0 mi WSW 9.2 mph 20.7 mph N/A   Clear
6:15 PM 76.1 °F 21.0 °F 13% 29.87 in 10.0 mi WSW 12.7 mph 23.0 mph N/A   Clear
6:35 PM 74.7 °F 18.9 °F 12% 29.88 in 10.0 mi WSW 15.0 mph 25.3 mph N/A   Clear
6:55 PM 71.2 °F 19.4 °F 14% 29.88 in 10.0 mi WSW 11.5 mph 18.4 mph N/A   Clear
7:15 PM 68.5 °F 19.2 °F 15% 29.88 in 10.0 mi WSW 5.8 mph - N/A   Clear
7:35 PM 67.8 °F 16.5 °F 14% 29.88 in 10.0 mi SW 10.4 mph - N/A   Clear
7:55 PM 67.1 °F 16.9 °F 15% 29.88 in 10.0 mi SW 9.2 mph - N/A   Clear
8:15 PM 66.6 °F 16.3 °F 15% 29.89 in 10.0 mi SW 10.4 mph - N/A   Clear
8:35 PM 66.2 °F 16.0 °F 14% 29.89 in 10.0 mi SW 8.1 mph - N/A   Clear
8:55 PM 65.3 °F 18.3 °F 16% 29.89 in 10.0 mi WSW 9.2 mph - N/A   Clear
9:15 PM 67.1 °F 15.8 °F 14% 29.90 in 10.0 mi West 8.1 mph - N/A   Clear
9:35 PM 64.8 °F 14.7 °F 14% 29.90 in 10.0 mi West 4.6 mph - N/A   Clear
9:55 PM 65.5 °F 14.5 °F 14% 29.90 in 10.0 mi Calm Calm - N/A   Clear
10:15 PM 59.4 °F 15.6 °F 18% 29.90 in 10.0 mi Calm Calm - N/A   Clear
10:35 PM 58.6 °F 15.4 °F 18% 29.90 in 10.0 mi Calm Calm - N/A   Clear
10:55 PM 58.5 °F 17.6 °F 20% 29.90 in 10.0 mi WSW 8.1 mph - N/A   Clear
11:15 PM 67.3 °F 16.3 °F 14% 29.90 in 10.0 mi West 20.7 mph 33.4 mph N/A   Clear
11:35 PM 65.1 °F 16.9 °F 16% 29.90 in 10.0 mi West 18.4 mph 25.3 mph N/A   Clear
11:55 PM 65.3 °F 16.9 °F 16% 29.91 in 10.0 mi West 6.9 mph 16.1 mph N/A   Clear